Hourly Data Report for December 29, 2020

MUSKOKA
ONTARIO
Current Station Operator: NAVCAN

44°58'29.000" N
79°18'12.000" W
281.90 m
6115529
71532
YQA

Download Data

Hourly Data (December 2020)
Hourly Data Report for December 29, 2020
TIME
LST
Temp Definition
°C
Dew Point Definition
°C
Rel Hum Definition
%
Precip. Amount Definition
mm

Wind Dir Definition
10's deg

Wind Spd Definition
km/h
Visibility Definition
km
Stn Press Definition
kPa
Hmdx Definition


Wind Chill Definition


Weather Definition


00:00 -9.4 -11.0 88 LegendMM 34 5 16.1 98.80   -12 LegendNANA
01:00 -9.9 -11.2 90 LegendMM   0 16.1 98.83     LegendNANA
02:00 -10.2 -11.4 91 LegendMM 33 5 16.1 98.92   -13 LegendNANA
03:00 -10.0 -11.5 89 LegendMM   0 16.1 99.00     LegendNANA
04:00 -11.0 -12.1 92 LegendMM   0 16.1 99.08     LegendNANA
05:00 -11.0 -12.3 90 LegendMM   0 16.1 99.12     LegendNANA
06:00 -12.0 -13.3 90 LegendMM   0 16.1 99.24     LegendNANA
07:00 -11.5 -12.8 90 LegendMM 20 4 16.1 99.35   -14 Snow
08:00 -9.4 -11.3 86 LegendMM 32 8 16.1 99.46   -14 Snow
09:00 -9.7 -11.9 84 LegendMM 34 13 16.1 99.53   -16 LegendNANA
10:00 -9.3 -13.3 73 LegendMM 34 17 16.1 99.64   -16 Snow
11:00 -8.5 -13.6 67 LegendMM 32 21 16.1 99.74   -16 LegendNANA
12:00 -7.7 -13.2 65 LegendMM 31 18 16.1 99.78   -15 LegendNANA
13:00 -7.2 -13.5 61 LegendMM 33 17 16.1 99.76   -14 LegendNANA
14:00 -6.3 -12.7 61 LegendMM 31 11 16.1 99.73   -11 LegendNANA
15:00 -6.4 -12.1 64 LegendMM 30 8 16.1 99.70   -10 LegendNANA
16:00 -6.2 -11.6 66 LegendMM 14 4 16.1 99.71   -8 LegendNANA
17:00 -6.4 -10.1 75 LegendMM 14 5 16.1 99.71   -9 LegendNANA
18:00 -6.5 -9.9 77 LegendMM 18 8 16.1 99.71   -10 LegendNANA
19:00 -6.0 -9.2 78 LegendMM 19 11 16.1 99.72   -11 LegendNANA
20:00 -5.6 -8.4 81 LegendMM 19 9 16.1 99.69   -10 LegendNANA
21:00 -5.3 -8.2 80 LegendMM 20 9 16.1 99.65   -9 LegendNANA
22:00 -6.1 -8.9 81 LegendMM 20 8 16.1 99.60   -10 LegendNANA
23:00 -6.5 -9.4 80 LegendMM 18 8 16.1 99.54   -10 LegendNANA

Notes on Data Quality.

Legend

  • E = Estimated
  • M = Missing
  • NA = Not Available*
  • [empty] = Indicates an unobserved value
Date modified: